EXS53VK EGBB-LGSM

Flight info

Callsign EXS53VK
Flight time 3h 36m
Altitude 39000
Route COWLY Q70 BIG UL9 KONAN DCT KOK DCT KOMOB DCT KRH DCT UTABA DCT MOMUK DCT GEDSO DCT VEKEN DCT KANIN DCT NEMEK DCT TUPUS DCT OSLUD DCT MEDUX UM867 KOGAT DCT ERANA UL737 TSL UN130 MES L609 PIPEN Y94 ORMOS
Aircraft B738/M-SDE2E3FGHIRWXY/LB1

Departure

Time 2026-05-08 08:59
Airport Birmingham Airport (EGBB)

Arrival

Time 2026-05-08 12:36
Airport Samos Airport (LGSM)
Time Latitude Longitude Altitude Speed Heading
2026-05-08 08:32 52.45060 -1.73266 322 ft 0 kts 326°
2026-05-08 08:48 52.45059 -1.73266 322 ft 2 kts 326°
2026-05-08 08:48 52.45040 -1.73241 321 ft 4 kts 310°
2026-05-08 08:49 52.45029 -1.73205 319 ft 4 kts 265°
2026-05-08 08:49 52.45023 -1.73215 319 ft 4 kts 233°
2026-05-08 08:49 52.45013 -1.73238 322 ft 0 kts 236°
2026-05-08 08:52 52.45012 -1.73238 322 ft 0 kts 236°
2026-05-08 08:52 52.45006 -1.73254 322 ft 4 kts 235°
2026-05-08 08:52 52.44976 -1.73327 322 ft 11 kts 236°
2026-05-08 08:53 52.44923 -1.73453 322 ft 15 kts 237°
2026-05-08 08:53 52.44899 -1.73554 322 ft 8 kts 269°
2026-05-08 08:53 52.44933 -1.73631 322 ft 10 kts 322°
2026-05-08 08:53 52.44998 -1.73704 322 ft 13 kts 326°
2026-05-08 08:54 52.45088 -1.73769 322 ft 15 kts 338°
2026-05-08 08:54 52.45184 -1.73868 321 ft 17 kts 326°
2026-05-08 08:54 52.45287 -1.73985 322 ft 19 kts 318°
2026-05-08 08:54 52.45350 -1.74165 322 ft 18 kts 296°
2026-05-08 08:55 52.45404 -1.74344 321 ft 17 kts 297°
2026-05-08 08:55 52.45457 -1.74514 322 ft 16 kts 297°
2026-05-08 08:55 52.45533 -1.74638 321 ft 16 kts 325°
2026-05-08 08:55 52.45638 -1.74754 316 ft 21 kts 327°
2026-05-08 08:56 52.45778 -1.74911 308 ft 27 kts 326°
2026-05-08 08:56 52.45933 -1.75083 306 ft 26 kts 326°
2026-05-08 08:56 52.46080 -1.75244 303 ft 25 kts 326°
2026-05-08 08:56 52.46217 -1.75399 301 ft 23 kts 326°
2026-05-08 08:57 52.46348 -1.75543 303 ft 22 kts 325°
2026-05-08 08:57 52.46472 -1.75681 301 ft 20 kts 326°
2026-05-08 08:57 52.46580 -1.75801 304 ft 18 kts 327°
2026-05-08 08:57 52.46632 -1.75906 308 ft 11 kts 262°
2026-05-08 08:58 52.46596 -1.76012 306 ft 11 kts 236°
2026-05-08 08:58 52.46539 -1.76073 308 ft 7 kts 169°
2026-05-08 08:58 52.46497 -1.76037 307 ft 7 kts 147°
2026-05-08 08:58 52.46359 -1.75883 309 ft 55 kts 145°
2026-05-08 08:59 52.45853 -1.75319 318 ft 118 kts 146°
2026-05-08 08:59 52.45044 -1.74421 368 ft 165 kts 146°
2026-05-08 08:59 52.44040 -1.73326 947 ft 177 kts 146°
2026-05-08 08:59 52.43045 -1.72239 1911 ft 173 kts 146°
2026-05-08 09:00 52.42016 -1.71087 2550 ft 189 kts 146°
2026-05-08 09:00 52.40862 -1.69893 3008 ft 199 kts 153°
2026-05-08 09:00 52.39508 -1.69208 3484 ft 211 kts 167°
2026-05-08 09:00 52.38035 -1.68742 4051 ft 219 kts 167°
2026-05-08 09:01 52.36628 -1.67816 4873 ft 218 kts 151°
2026-05-08 09:01 52.35292 -1.66648 5633 ft 216 kts 150°
2026-05-08 09:01 52.34000 -1.65343 6342 ft 221 kts 147°
2026-05-08 09:01 52.32684 -1.63949 6815 ft 237 kts 148°
2026-05-08 09:02 52.31228 -1.62417 7140 ft 258 kts 148°
2026-05-08 09:02 52.29711 -1.60835 7775 ft 265 kts 148°
2026-05-08 09:02 52.28140 -1.59208 8552 ft 270 kts 149°
2026-05-08 09:02 52.26545 -1.57562 9344 ft 273 kts 149°
2026-05-08 09:03 52.24912 -1.55967 10142 ft 275 kts 155°
2026-05-08 09:03 52.23157 -1.54561 10545 ft 292 kts 156°
2026-05-08 09:03 52.21249 -1.53090 10727 ft 315 kts 156°
2026-05-08 09:03 52.19214 -1.51512 11090 ft 329 kts 156°
2026-05-08 09:04 52.17124 -1.49875 11687 ft 337 kts 156°
2026-05-08 09:04 52.15033 -1.48226 12391 ft 340 kts 155°
2026-05-08 09:04 52.12883 -1.46527 13034 ft 347 kts 156°
2026-05-08 09:04 52.12025 -1.45849 13255 ft 349 kts 156°
2026-05-08 09:05 52.10261 -1.44456 13821 ft 352 kts 156°
2026-05-08 09:05 52.08050 -1.42712 14489 ft 355 kts 156°
2026-05-08 09:05 52.05820 -1.40953 15149 ft 357 kts 156°
2026-05-08 09:05 52.03575 -1.39185 15777 ft 361 kts 156°
2026-05-08 09:06 52.01310 -1.37404 16385 ft 364 kts 156°
2026-05-08 09:06 51.99016 -1.35603 17003 ft 368 kts 156°
2026-05-08 09:06 51.96729 -1.33809 17612 ft 371 kts 156°
2026-05-08 09:06 51.94399 -1.31983 18224 ft 375 kts 156°
2026-05-08 09:07 51.92041 -1.30138 18759 ft 378 kts 156°
2026-05-08 09:07 51.89661 -1.28278 19290 ft 381 kts 156°
2026-05-08 09:07 51.87263 -1.26405 19817 ft 384 kts 156°
2026-05-08 09:07 51.84850 -1.24523 20344 ft 387 kts 155°
2026-05-08 09:08 51.82415 -1.22626 20857 ft 390 kts 156°
2026-05-08 09:08 51.79961 -1.20716 21381 ft 393 kts 156°
2026-05-08 09:08 51.77495 -1.18800 21909 ft 394 kts 156°
2026-05-08 09:08 51.75049 -1.16901 22426 ft 397 kts 155°
2026-05-08 09:09 51.72509 -1.14932 22847 ft 402 kts 155°
2026-05-08 09:09 51.70020 -1.13003 23339 ft 404 kts 155°
2026-05-08 09:09 51.67478 -1.11037 23792 ft 407 kts 155°
2026-05-08 09:09 51.64914 -1.09058 24151 ft 410 kts 155°
2026-05-08 09:10 51.62486 -1.06597 24385 ft 419 kts 137°
2026-05-08 09:10 51.60653 -1.02933 24712 ft 425 kts 119°
2026-05-08 09:10 51.59467 -0.98560 25066 ft 429 kts 111°
2026-05-08 09:10 51.58397 -0.94068 25367 ft 432 kts 112°
2026-05-08 09:11 51.57314 -0.89611 25802 ft 433 kts 112°
2026-05-08 09:11 51.56189 -0.85126 26164 ft 435 kts 112°
2026-05-08 09:11 51.55036 -0.80613 26494 ft 439 kts 112°
2026-05-08 09:11 51.53865 -0.76064 26812 ft 442 kts 112°
2026-05-08 09:12 51.52686 -0.71496 27175 ft 444 kts 112°
2026-05-08 09:12 51.51500 -0.66899 27551 ft 446 kts 112°
2026-05-08 09:12 51.50311 -0.62297 27891 ft 448 kts 112°
2026-05-08 09:12 51.49114 -0.57662 28196 ft 451 kts 112°
2026-05-08 09:13 51.47918 -0.53040 28494 ft 454 kts 112°
2026-05-08 09:13 51.46717 -0.48405 28779 ft 456 kts 112°
2026-05-08 09:13 51.45496 -0.43701 29075 ft 459 kts 112°
2026-05-08 09:13 51.44266 -0.38975 29365 ft 461 kts 112°
2026-05-08 09:14 51.43027 -0.34224 29638 ft 464 kts 112°
2026-05-08 09:14 51.41779 -0.29447 29901 ft 466 kts 112°
2026-05-08 09:14 51.40520 -0.24640 30163 ft 468 kts 112°
2026-05-08 09:14 51.39255 -0.19820 30402 ft 470 kts 112°
2026-05-08 09:15 51.37989 -0.15006 30691 ft 470 kts 112°
2026-05-08 09:15 51.36720 -0.10187 31007 ft 470 kts 112°
2026-05-08 09:15 51.35449 -0.05371 31285 ft 470 kts 112°
2026-05-08 09:15 51.34190 -0.00612 31559 ft 470 kts 113°
2026-05-08 09:16 51.33014 0.04186 32373 ft 457 kts 108°
2026-05-08 09:16 51.32255 0.09106 32548 ft 459 kts 101°
2026-05-08 09:16 51.31112 0.19279 32681 ft 469 kts 100°
2026-05-08 09:17 51.30515 0.24405 32952 ft 469 kts 101°
2026-05-08 09:17 51.29886 0.29505 33273 ft 467 kts 101°
2026-05-08 09:17 51.29248 0.34590 33536 ft 467 kts 101°
2026-05-08 09:17 51.28622 0.39701 33737 ft 469 kts 100°
2026-05-08 09:18 51.28012 0.44746 33949 ft 469 kts 100°
2026-05-08 09:18 51.27410 0.49734 34196 ft 469 kts 101°
2026-05-08 09:18 51.26790 0.54823 34559 ft 464 kts 101°
2026-05-08 09:18 51.26168 0.59865 34844 ft 463 kts 102°
2026-05-08 09:19 51.25508 0.64910 34981 ft 465 kts 102°
2026-05-08 09:19 51.24830 0.69975 35150 ft 467 kts 102°
2026-05-08 09:19 51.24164 0.75032 35369 ft 466 kts 102°
2026-05-08 09:19 51.23523 0.80100 35628 ft 465 kts 102°
2026-05-08 09:20 51.22900 0.85097 35835 ft 465 kts 102°
2026-05-08 09:20 51.22267 0.90156 36018 ft 466 kts 102°
2026-05-08 09:20 51.21629 0.95214 36223 ft 466 kts 102°
2026-05-08 09:20 51.20984 1.00273 36462 ft 464 kts 102°
2026-05-08 09:21 51.20335 1.05310 36684 ft 463 kts 103°
2026-05-08 09:21 51.19677 1.10338 36816 ft 464 kts 103°
2026-05-08 09:22 51.15931 1.40619 37680 ft 468 kts 96°
2026-05-08 09:23 51.15681 1.45799 37754 ft 470 kts 94°
2026-05-08 09:23 51.15319 1.54610 37873 ft 472 kts 94°
2026-05-08 09:24 51.14884 1.64808 38053 ft 475 kts 95°
2026-05-08 09:24 51.14473 1.73355 38180 ft 477 kts 95°
2026-05-08 09:25 51.13970 1.83254 38108 ft 481 kts 95°
2026-05-08 09:25 51.13463 1.93071 38091 ft 477 kts 95°
2026-05-08 09:26 51.12943 2.02993 38097 ft 473 kts 96°
2026-05-08 09:26 51.12398 2.13225 38099 ft 469 kts 96°
2026-05-08 09:27 51.11842 2.23509 38102 ft 467 kts 96°
2026-05-08 09:27 51.11280 2.33762 38115 ft 470 kts 96°
2026-05-08 09:28 51.10699 2.44174 38107 ft 475 kts 96°
2026-05-08 09:28 51.10106 2.54688 38088 ft 479 kts 96°
2026-05-08 09:28 51.09789 2.59974 37822 ft 480 kts 99°
2026-05-08 09:29 51.09127 2.65134 37529 ft 472 kts 108°
2026-05-08 09:29 51.08018 2.69990 37255 ft 462 kts 118°
2026-05-08 09:29 51.06559 2.74434 37145 ft 459 kts 120°
2026-05-08 09:30 51.03512 2.83360 37111 ft 460 kts 120°
2026-05-08 09:30 51.00475 2.92311 37103 ft 461 kts 120°
2026-05-08 09:31 50.97448 3.01306 37098 ft 461 kts 120°
2026-05-08 09:31 50.94450 3.10223 37094 ft 461 kts 120°
2026-05-08 09:32 50.91429 3.19183 37093 ft 461 kts 120°
2026-05-08 09:32 50.88396 3.28141 37097 ft 461 kts 120°
2026-05-08 09:33 50.85362 3.37068 37094 ft 460 kts 120°
2026-05-08 09:33 50.82339 3.45931 37087 ft 460 kts 120°
2026-05-08 09:34 50.79295 3.54824 37107 ft 460 kts 120°
2026-05-08 09:34 50.76243 3.63710 37109 ft 460 kts 120°
2026-05-08 09:35 50.73180 3.72595 37086 ft 461 kts 121°
2026-05-08 09:35 50.70109 3.81474 37097 ft 461 kts 121°
2026-05-08 09:36 50.67054 3.90275 37096 ft 461 kts 121°
2026-05-08 09:36 50.63969 3.99132 37095 ft 461 kts 121°
2026-05-08 09:37 50.60880 4.07969 37096 ft 461 kts 121°
2026-05-08 09:37 50.57781 4.16804 37095 ft 461 kts 121°
2026-05-08 09:38 50.54679 4.25618 37098 ft 460 kts 121°
2026-05-08 09:38 50.51591 4.34362 37102 ft 461 kts 121°
2026-05-08 09:39 50.48476 4.43152 37103 ft 460 kts 121°
2026-05-08 09:39 50.45354 4.51930 37103 ft 460 kts 121°
2026-05-08 09:40 50.42227 4.60693 37102 ft 460 kts 121°
2026-05-08 09:40 50.39112 4.69394 37097 ft 460 kts 122°
2026-05-08 09:41 50.35971 4.78135 37093 ft 460 kts 122°
2026-05-08 09:41 50.32829 4.86851 37093 ft 460 kts 122°
2026-05-08 09:42 50.29677 4.95565 37081 ft 460 kts 122°
2026-05-08 09:42 50.26539 5.04211 37093 ft 460 kts 122°
2026-05-08 09:43 50.23377 5.12896 37083 ft 460 kts 122°
2026-05-08 09:43 50.20210 5.21565 37090 ft 460 kts 122°
2026-05-08 09:44 50.17037 5.30225 37091 ft 460 kts 122°
2026-05-08 09:44 50.13863 5.38874 37091 ft 460 kts 121°
2026-05-08 09:45 50.10865 5.47605 37091 ft 460 kts 120°
2026-05-08 09:45 50.07917 5.56452 37093 ft 460 kts 120°
2026-05-08 09:46 50.04951 5.65275 37074 ft 460 kts 120°
2026-05-08 09:46 50.01961 5.74073 37096 ft 460 kts 120°
2026-05-08 09:47 49.98959 5.82847 37095 ft 460 kts 121°
2026-05-08 09:47 49.95969 5.91553 37096 ft 460 kts 121°
2026-05-08 09:48 49.92951 6.00314 37091 ft 460 kts 121°
2026-05-08 09:48 49.89928 6.09061 37092 ft 460 kts 121°
2026-05-08 09:49 49.86899 6.17794 37102 ft 460 kts 121°
2026-05-08 09:49 49.83858 6.26531 37100 ft 460 kts 121°
2026-05-08 09:50 49.80834 6.35193 37089 ft 460 kts 121°
2026-05-08 09:50 49.77782 6.43904 37095 ft 460 kts 121°
2026-05-08 09:51 49.74782 6.52439 37096 ft 460 kts 121°
2026-05-08 09:51 49.71715 6.61133 37090 ft 460 kts 121°
2026-05-08 09:52 49.68664 6.69752 37098 ft 460 kts 121°
2026-05-08 09:52 49.65584 6.78425 37085 ft 461 kts 121°
2026-05-08 09:53 49.62497 6.87091 37090 ft 461 kts 121°
2026-05-08 09:53 49.59403 6.95745 37096 ft 461 kts 121°
2026-05-08 09:54 49.56301 7.04391 37100 ft 461 kts 121°
2026-05-08 09:54 49.53212 7.12975 37100 ft 461 kts 121°
2026-05-08 09:55 49.50097 7.21600 37095 ft 461 kts 121°
2026-05-08 09:55 49.46978 7.30211 37101 ft 461 kts 122°
2026-05-08 09:56 49.43857 7.38795 37114 ft 461 kts 122°
2026-05-08 09:56 49.40744 7.47331 37106 ft 461 kts 122°
2026-05-08 09:57 49.36029 7.60205 37092 ft 461 kts 122°
2026-05-08 09:57 49.32881 7.68766 37102 ft 461 kts 122°
2026-05-08 09:58 49.29750 7.77254 37102 ft 461 kts 122°
2026-05-08 09:58 49.26610 7.85737 37109 ft 461 kts 122°
2026-05-08 09:59 49.23446 7.94256 37108 ft 461 kts 122°
2026-05-08 09:59 49.20275 8.02770 37098 ft 461 kts 122°
2026-05-08 10:00 49.17097 8.11272 37112 ft 460 kts 122°
2026-05-08 10:00 49.13916 8.19756 37104 ft 460 kts 122°
2026-05-08 10:01 49.10731 8.28223 37102 ft 460 kts 122°
2026-05-08 10:01 49.07561 8.36625 37097 ft 460 kts 122°
2026-05-08 10:02 49.04360 8.45084 37104 ft 460 kts 122°
2026-05-08 10:02 49.01156 8.53523 37092 ft 460 kts 123°
2026-05-08 10:03 48.97221 8.61078 37089 ft 453 kts 141°
2026-05-08 10:03 48.92346 8.66999 37082 ft 451 kts 145°
2026-05-08 10:04 48.87388 8.72845 37087 ft 451 kts 145°
2026-05-08 10:04 48.82444 8.78734 37079 ft 452 kts 144°
2026-05-08 10:05 48.77512 8.84646 37076 ft 452 kts 144°
2026-05-08 10:05 48.72610 8.90520 37070 ft 452 kts 144°
2026-05-08 10:06 48.67677 8.96416 37076 ft 452 kts 144°
2026-05-08 10:06 48.62736 9.02305 37088 ft 452 kts 144°
2026-05-08 10:07 48.57788 9.08185 37089 ft 453 kts 144°
2026-05-08 10:07 48.52861 9.14025 37081 ft 454 kts 144°
2026-05-08 10:08 48.47884 9.19910 37067 ft 455 kts 145°
2026-05-08 10:08 48.42907 9.25780 37075 ft 453 kts 145°
2026-05-08 10:09 48.37948 9.31615 37078 ft 452 kts 145°
2026-05-08 10:09 48.32995 9.37428 37063 ft 451 kts 145°
2026-05-08 10:10 48.28041 9.43230 37092 ft 453 kts 145°
2026-05-08 10:10 48.23112 9.49145 37072 ft 453 kts 143°
2026-05-08 10:11 48.18357 9.55343 37076 ft 453 kts 142°
2026-05-08 10:11 48.13660 9.61510 37081 ft 451 kts 142°
2026-05-08 10:12 48.08918 9.67662 37086 ft 451 kts 142°
2026-05-08 10:12 48.04170 9.73774 37085 ft 451 kts 142°
2026-05-08 10:13 47.99415 9.79877 37076 ft 451 kts 143°
2026-05-08 10:13 47.94682 9.85940 37079 ft 451 kts 143°
2026-05-08 10:14 47.89913 9.92036 37079 ft 452 kts 143°
2026-05-08 10:14 47.85157 9.98191 37073 ft 455 kts 138°
2026-05-08 10:15 47.81348 10.05783 37091 ft 462 kts 123°
2026-05-08 10:15 47.78170 10.14046 37059 ft 464 kts 122°
2026-05-08 10:16 47.74965 10.22380 37046 ft 464 kts 124°
2026-05-08 10:16 47.71717 10.30674 37055 ft 464 kts 124°
2026-05-08 10:17 47.68446 10.38942 37058 ft 465 kts 124°
2026-05-08 10:17 47.65157 10.47216 37054 ft 465 kts 124°
2026-05-08 10:18 47.61886 10.55423 37037 ft 465 kts 124°
2026-05-08 10:18 47.58592 10.63665 37044 ft 465 kts 124°
2026-05-08 10:19 47.55299 10.71880 37046 ft 464 kts 125°
2026-05-08 10:20 47.50353 10.84175 37043 ft 463 kts 125°
2026-05-08 10:20 47.47076 10.92291 37032 ft 463 kts 125°
2026-05-08 10:21 47.43775 11.00439 37034 ft 462 kts 125°
2026-05-08 10:21 47.40474 11.08566 37055 ft 461 kts 125°
2026-05-08 10:22 47.37193 11.16616 37050 ft 461 kts 125°
2026-05-08 10:22 47.33882 11.24714 37029 ft 461 kts 125°
2026-05-08 10:23 47.30568 11.32798 37037 ft 460 kts 126°
2026-05-08 10:23 47.27257 11.40856 37051 ft 460 kts 126°
2026-05-08 10:24 47.23955 11.48862 37049 ft 461 kts 126°
2026-05-08 10:24 47.20627 11.56909 37028 ft 460 kts 126°
2026-05-08 10:25 47.17299 11.64940 37038 ft 459 kts 126°
2026-05-08 10:25 47.14532 11.71593 37058 ft 460 kts 126°
2026-05-08 10:26 47.11186 11.79613 37048 ft 461 kts 126°
2026-05-08 10:26 47.07337 11.89010 37036 ft 466 kts 122°
2026-05-08 10:27 47.04903 11.96147 37060 ft 467 kts 120°
2026-05-08 10:27 47.02117 12.04709 37059 ft 469 kts 120°
2026-05-08 10:28 46.99278 12.13323 37062 ft 470 kts 120°
2026-05-08 10:28 46.96395 12.21928 37082 ft 471 kts 121°
2026-05-08 10:29 46.93488 12.30531 37071 ft 471 kts 121°
2026-05-08 10:29 46.90584 12.39091 37073 ft 469 kts 121°
2026-05-08 10:30 46.87710 12.47540 37076 ft 466 kts 121°
2026-05-08 10:30 46.84825 12.55997 37070 ft 463 kts 121°
2026-05-08 10:31 46.81954 12.64386 37075 ft 461 kts 121°
2026-05-08 10:31 46.79081 12.72753 37040 ft 461 kts 121°
2026-05-08 10:32 46.76210 12.81087 37069 ft 459 kts 121°
2026-05-08 10:32 46.73357 12.89342 37072 ft 459 kts 121°
2026-05-08 10:33 46.70484 12.97632 37063 ft 457 kts 121°
2026-05-08 10:33 46.67606 13.05907 37063 ft 459 kts 121°
2026-05-08 10:34 46.64705 13.14221 37064 ft 461 kts 122°
2026-05-08 10:34 46.61792 13.22550 37059 ft 463 kts 122°
2026-05-08 10:35 46.58885 13.30838 37061 ft 463 kts 122°
2026-05-08 10:35 46.55889 13.39128 37053 ft 462 kts 127°
2026-05-08 10:36 46.52200 13.46702 37071 ft 460 kts 131°
2026-05-08 10:36 46.48400 13.54187 37045 ft 461 kts 131°
2026-05-08 10:37 46.44684 13.61700 37082 ft 461 kts 130°
2026-05-08 10:37 46.40925 13.69245 37073 ft 461 kts 131°
2026-05-08 10:38 46.37126 13.76733 37053 ft 461 kts 131°
2026-05-08 10:38 46.33333 13.84191 37065 ft 460 kts 131°
2026-05-08 10:39 46.29575 13.91580 37084 ft 458 kts 131°
2026-05-08 10:39 46.25803 13.98985 37085 ft 456 kts 131°
2026-05-08 10:40 46.22038 14.06357 37084 ft 455 kts 131°
2026-05-08 10:40 46.18287 14.13681 37075 ft 453 kts 131°
2026-05-08 10:41 46.14558 14.20942 37073 ft 453 kts 132°
2026-05-08 10:41 46.10808 14.28227 37079 ft 453 kts 132°
2026-05-08 10:42 46.07051 14.35505 37083 ft 453 kts 132°
2026-05-08 10:42 46.03282 14.42788 37066 ft 453 kts 132°
2026-05-08 10:43 45.99516 14.50046 37078 ft 453 kts 132°
2026-05-08 10:43 45.95765 14.57256 37086 ft 454 kts 132°
2026-05-08 10:44 45.91964 14.64544 37089 ft 458 kts 132°
2026-05-08 10:44 45.88137 14.71861 37080 ft 458 kts 132°
2026-05-08 10:45 45.84315 14.79157 37077 ft 457 kts 132°
2026-05-08 10:45 45.80490 14.86436 37082 ft 456 kts 132°
2026-05-08 10:46 45.76694 14.93640 37089 ft 456 kts 132°
2026-05-08 10:46 45.72869 15.00881 37072 ft 456 kts 132°
2026-05-08 10:47 45.69044 15.08105 37071 ft 455 kts 132°
2026-05-08 10:47 45.65222 15.15305 37070 ft 455 kts 132°
2026-05-08 10:48 45.61398 15.22492 37080 ft 454 kts 132°
2026-05-08 10:48 45.57595 15.29620 37088 ft 454 kts 133°
2026-05-08 10:49 45.53617 15.36578 37084 ft 451 kts 136°
2026-05-08 10:49 45.49519 15.43338 37088 ft 450 kts 136°
2026-05-08 10:50 45.45432 15.50118 37085 ft 451 kts 135°
2026-05-08 10:50 45.41397 15.56865 37091 ft 451 kts 135°
2026-05-08 10:51 45.37342 15.63649 37092 ft 451 kts 135°
2026-05-08 10:51 45.33276 15.70436 37092 ft 450 kts 135°
2026-05-08 10:52 45.29209 15.77204 37086 ft 450 kts 135°
2026-05-08 10:52 45.25170 15.83912 37070 ft 449 kts 135°
2026-05-08 10:53 45.21112 15.90655 37084 ft 449 kts 135°
2026-05-08 10:53 45.17147 15.97525 37081 ft 450 kts 134°
2026-05-08 10:54 45.13213 16.04435 37079 ft 451 kts 134°
2026-05-08 10:54 45.09262 16.11336 37082 ft 452 kts 134°
2026-05-08 10:55 45.05314 16.18187 37095 ft 452 kts 134°
2026-05-08 10:55 45.01329 16.25075 37075 ft 453 kts 134°
2026-05-08 10:56 44.97332 16.31967 37067 ft 453 kts 134°
2026-05-08 10:56 44.93341 16.38833 37095 ft 453 kts 134°
2026-05-08 10:57 44.89352 16.45676 37075 ft 454 kts 134°
2026-05-08 10:57 44.83340 16.55964 37063 ft 452 kts 134°
2026-05-08 10:58 44.79350 16.62773 37078 ft 450 kts 134°
2026-05-08 10:58 44.75369 16.69546 37078 ft 448 kts 134°
2026-05-08 10:59 44.71419 16.76251 37077 ft 448 kts 134°
2026-05-08 10:59 44.67442 16.82987 37077 ft 448 kts 134°
2026-05-08 11:00 44.63463 16.89708 37070 ft 447 kts 134°
2026-05-08 11:00 44.59485 16.96415 37081 ft 447 kts 134°
2026-05-08 11:01 44.55500 17.03116 37068 ft 448 kts 134°
2026-05-08 11:01 44.51531 17.09774 37073 ft 448 kts 134°
2026-05-08 11:02 44.45530 17.19815 37075 ft 448 kts 134°
2026-05-08 11:03 44.41519 17.26507 37065 ft 449 kts 134°
2026-05-08 11:03 44.37522 17.33155 37073 ft 450 kts 134°
2026-05-08 11:04 44.33495 17.39840 37077 ft 450 kts 134°
2026-05-08 11:04 44.29457 17.46528 37065 ft 450 kts 134°
2026-05-08 11:05 44.25423 17.53195 37070 ft 449 kts 135°
2026-05-08 11:05 44.21416 17.59801 37063 ft 448 kts 135°
2026-05-08 11:06 44.17397 17.66413 37060 ft 447 kts 135°
2026-05-08 11:06 44.13375 17.73011 37047 ft 447 kts 135°
2026-05-08 11:07 44.09366 17.79576 37062 ft 445 kts 135°
2026-05-08 11:07 44.05359 17.86121 37072 ft 444 kts 135°
2026-05-08 11:08 44.01380 17.92605 37072 ft 445 kts 135°
2026-05-08 11:08 43.97349 17.99158 37066 ft 448 kts 135°
2026-05-08 11:09 43.93304 18.05721 37056 ft 447 kts 135°
2026-05-08 11:09 43.89265 18.12258 37061 ft 445 kts 135°
2026-05-08 11:10 43.85275 18.18706 37073 ft 443 kts 135°
2026-05-08 11:10 43.81263 18.25171 37078 ft 442 kts 135°
2026-05-08 11:11 43.77256 18.31612 37081 ft 441 kts 135°
2026-05-08 11:11 43.73251 18.38037 37077 ft 441 kts 135°
2026-05-08 11:12 43.69238 18.44458 37065 ft 442 kts 135°
2026-05-08 11:12 43.65241 18.50841 37050 ft 443 kts 135°
2026-05-08 11:13 43.61203 18.57277 37049 ft 444 kts 135°
2026-05-08 11:13 43.57152 18.63719 37051 ft 446 kts 135°
2026-05-08 11:14 43.53103 18.70144 37045 ft 447 kts 135°
2026-05-08 11:14 43.49015 18.76618 37035 ft 448 kts 135°
2026-05-08 11:15 43.44982 18.83185 37028 ft 450 kts 133°
2026-05-08 11:15 43.41098 18.89952 37031 ft 451 kts 132°
2026-05-08 11:16 43.37248 18.96677 37022 ft 451 kts 132°
2026-05-08 11:16 43.33340 19.03427 37028 ft 451 kts 133°
2026-05-08 11:17 43.29413 19.10163 37023 ft 452 kts 133°
2026-05-08 11:17 43.25474 19.16894 37011 ft 452 kts 133°
2026-05-08 11:18 43.21536 19.23610 37008 ft 451 kts 133°
2026-05-08 11:18 43.17630 19.30259 37023 ft 451 kts 133°
2026-05-08 11:19 43.13687 19.36954 37006 ft 451 kts 133°
2026-05-08 11:19 43.09748 19.43629 36999 ft 450 kts 133°
2026-05-08 11:20 43.05815 19.50277 37004 ft 449 kts 133°
2026-05-08 11:20 43.01911 19.56863 37003 ft 449 kts 133°
2026-05-08 11:21 42.97980 19.63478 37011 ft 448 kts 133°
2026-05-08 11:21 42.94043 19.70088 36999 ft 450 kts 133°
2026-05-08 11:22 42.90093 19.76708 36990 ft 449 kts 133°
2026-05-08 11:22 42.86179 19.83252 37002 ft 448 kts 133°
2026-05-08 11:23 42.82239 19.89824 37015 ft 447 kts 133°
2026-05-08 11:23 42.78305 19.96375 37023 ft 448 kts 133°
2026-05-08 11:24 42.74359 20.02936 37018 ft 447 kts 133°
2026-05-08 11:24 42.70417 20.09457 37036 ft 446 kts 133°
2026-05-08 11:25 42.66493 20.15924 37018 ft 447 kts 133°
2026-05-08 11:25 42.62525 20.22455 37040 ft 449 kts 133°
2026-05-08 11:26 42.58552 20.28988 37027 ft 449 kts 133°
2026-05-08 11:26 42.54568 20.35522 37044 ft 450 kts 134°
2026-05-08 11:27 42.50568 20.42069 37052 ft 452 kts 134°
2026-05-08 11:27 42.46565 20.48607 37023 ft 454 kts 134°
2026-05-08 11:28 42.42530 20.55184 37055 ft 455 kts 134°
2026-05-08 11:28 42.38473 20.61780 37057 ft 457 kts 134°
2026-05-08 11:29 42.34397 20.68393 37057 ft 457 kts 134°
2026-05-08 11:29 42.30354 20.74939 37040 ft 457 kts 134°
2026-05-08 11:30 42.26286 20.81511 37047 ft 455 kts 134°
2026-05-08 11:30 42.22220 20.88065 37062 ft 455 kts 134°
2026-05-08 11:31 42.18154 20.94604 37070 ft 456 kts 134°
2026-05-08 11:31 42.14074 21.01154 37064 ft 455 kts 134°
2026-05-08 11:32 42.09921 21.07553 37061 ft 451 kts 139°
2026-05-08 11:32 42.05413 21.13297 37090 ft 450 kts 141°
2026-05-08 11:33 42.00779 21.19021 37062 ft 454 kts 141°
2026-05-08 11:33 41.96141 21.24807 37055 ft 456 kts 141°
2026-05-08 11:34 41.91522 21.30622 37054 ft 455 kts 141°
2026-05-08 11:34 41.86952 21.36382 37063 ft 453 kts 141°
2026-05-08 11:35 41.82363 21.42154 37064 ft 452 kts 141°
2026-05-08 11:35 41.77779 21.47904 37065 ft 451 kts 141°
2026-05-08 11:36 41.73196 21.53640 37065 ft 451 kts 141°
2026-05-08 11:36 41.68608 21.59369 37078 ft 452 kts 141°
2026-05-08 11:37 41.64012 21.65091 37081 ft 457 kts 141°
2026-05-08 11:37 41.59347 21.70898 37069 ft 457 kts 141°
2026-05-08 11:38 41.54691 21.76682 37054 ft 456 kts 141°
2026-05-08 11:38 41.50054 21.82428 37045 ft 454 kts 142°
2026-05-08 11:39 41.45468 21.88097 37067 ft 453 kts 142°
2026-05-08 11:39 41.40844 21.93801 37074 ft 453 kts 142°
2026-05-08 11:40 41.36218 21.99496 37075 ft 454 kts 142°
2026-05-08 11:40 41.31574 22.05203 37080 ft 455 kts 142°
2026-05-08 11:41 41.26950 22.10875 37074 ft 456 kts 142°
2026-05-08 11:41 41.22279 22.16595 37080 ft 457 kts 142°
2026-05-08 11:42 41.17588 22.22326 37072 ft 459 kts 142°
2026-05-08 11:42 41.12778 22.27866 37082 ft 457 kts 146°
2026-05-08 11:43 41.07846 22.33110 37087 ft 458 kts 146°
2026-05-08 11:43 41.02872 22.38379 37078 ft 458 kts 146°
2026-05-08 11:44 40.97922 22.43660 37083 ft 457 kts 146°
2026-05-08 11:44 40.92981 22.48957 37085 ft 457 kts 146°
2026-05-08 11:45 40.88044 22.54241 37103 ft 457 kts 146°
2026-05-08 11:45 40.83129 22.59486 37099 ft 458 kts 146°
2026-05-08 11:46 40.78159 22.64779 37099 ft 459 kts 146°
2026-05-08 11:46 40.73175 22.70076 37106 ft 461 kts 146°
2026-05-08 11:47 40.68148 22.75407 37091 ft 465 kts 146°
2026-05-08 11:47 40.63142 22.80710 37094 ft 463 kts 147°
2026-05-08 11:48 40.58126 22.86013 37099 ft 461 kts 147°
2026-05-08 11:48 40.53134 22.91277 37106 ft 459 kts 147°
2026-05-08 11:49 40.48152 22.96522 37102 ft 459 kts 147°
2026-05-08 11:49 40.43349 23.02065 37108 ft 462 kts 139°
2026-05-08 11:50 40.38977 23.08165 37101 ft 462 kts 138°
2026-05-08 11:50 40.34614 23.14344 37100 ft 461 kts 138°
2026-05-08 11:51 40.30220 23.20467 37105 ft 460 kts 139°
2026-05-08 11:51 40.25801 23.26552 37104 ft 461 kts 139°
2026-05-08 11:52 40.21370 23.32626 37111 ft 462 kts 139°
2026-05-08 11:52 40.16952 23.38671 37081 ft 463 kts 139°
2026-05-08 11:53 40.12505 23.44747 37096 ft 464 kts 139°
2026-05-08 11:53 40.08040 23.50836 37114 ft 465 kts 139°
2026-05-08 11:54 40.03551 23.56944 37118 ft 467 kts 139°
2026-05-08 11:54 39.99074 23.63026 37116 ft 468 kts 139°
2026-05-08 11:55 39.94554 23.69153 37107 ft 469 kts 139°
2026-05-08 11:55 39.90019 23.75289 37088 ft 470 kts 140°
2026-05-08 11:56 39.85483 23.81413 37111 ft 470 kts 140°
2026-05-08 11:56 39.80936 23.87539 37120 ft 470 kts 140°
2026-05-08 11:57 39.76416 23.93616 37113 ft 471 kts 140°
2026-05-08 11:57 39.71862 23.99727 37121 ft 471 kts 140°
2026-05-08 11:58 39.67302 24.05833 37124 ft 471 kts 140°
2026-05-08 11:58 39.62735 24.11937 37119 ft 471 kts 140°
2026-05-08 11:59 39.55874 24.21084 37111 ft 472 kts 140°
2026-05-08 11:59 39.51330 24.27126 37118 ft 471 kts 140°
2026-05-08 12:00 39.46755 24.33199 37123 ft 471 kts 140°
2026-05-08 12:00 39.42176 24.39263 37095 ft 471 kts 140°
2026-05-08 12:01 39.37598 24.45317 37115 ft 471 kts 140°
2026-05-08 12:01 39.33047 24.51326 37125 ft 471 kts 140°
2026-05-08 12:02 39.28487 24.57433 37102 ft 473 kts 140°
2026-05-08 12:02 39.23922 24.63571 37115 ft 474 kts 140°
2026-05-08 12:03 39.19345 24.69700 37110 ft 474 kts 140°
2026-05-08 12:03 39.17055 24.72759 36762 ft 474 kts 140°
2026-05-08 12:03 39.14787 24.75789 36506 ft 465 kts 140°
2026-05-08 12:04 39.12579 24.78736 36130 ft 461 kts 140°
2026-05-08 12:04 39.10357 24.81691 35780 ft 457 kts 141°
2026-05-08 12:04 39.08141 24.84599 35408 ft 454 kts 141°
2026-05-08 12:04 39.05928 24.87471 35038 ft 451 kts 141°
2026-05-08 12:05 39.03724 24.90320 34661 ft 448 kts 142°
2026-05-08 12:05 39.01528 24.93155 34297 ft 445 kts 142°
2026-05-08 12:05 38.99353 24.95963 33878 ft 443 kts 142°
2026-05-08 12:05 38.97182 24.98765 33474 ft 441 kts 142°
2026-05-08 12:06 38.95023 25.01555 33086 ft 438 kts 143°
2026-05-08 12:06 38.92912 25.04282 32742 ft 435 kts 143°
2026-05-08 12:06 38.90786 25.07026 32384 ft 432 kts 143°
2026-05-08 12:06 38.88677 25.09745 32030 ft 429 kts 143°
2026-05-08 12:07 38.86580 25.12448 31684 ft 426 kts 143°
2026-05-08 12:07 38.84491 25.15136 31339 ft 424 kts 143°
2026-05-08 12:07 38.82418 25.17801 30998 ft 421 kts 143°
2026-05-08 12:07 38.80354 25.20452 30657 ft 419 kts 143°
2026-05-08 12:08 38.78299 25.23090 30317 ft 417 kts 143°
2026-05-08 12:08 38.76280 25.25679 29944 ft 415 kts 143°
2026-05-08 12:08 38.74249 25.28281 29559 ft 412 kts 143°
2026-05-08 12:08 38.72229 25.30869 29189 ft 409 kts 143°
2026-05-08 12:09 38.70225 25.33434 28808 ft 405 kts 143°
2026-05-08 12:09 38.68241 25.35972 28498 ft 401 kts 143°
2026-05-08 12:09 38.66273 25.38486 28142 ft 399 kts 143°
2026-05-08 12:09 38.64317 25.40982 27794 ft 396 kts 143°
2026-05-08 12:10 38.62374 25.43459 27455 ft 393 kts 143°
2026-05-08 12:10 38.60440 25.45921 27107 ft 391 kts 143°
2026-05-08 12:10 38.58550 25.48326 26785 ft 389 kts 143°
2026-05-08 12:10 38.56637 25.50759 26450 ft 387 kts 143°
2026-05-08 12:11 38.54731 25.53182 26115 ft 385 kts 142°
2026-05-08 12:11 38.52840 25.55583 25789 ft 383 kts 142°
2026-05-08 12:11 38.50955 25.57975 25451 ft 382 kts 142°
2026-05-08 12:11 38.49072 25.60363 25119 ft 380 kts 142°
2026-05-08 12:12 38.47199 25.62735 24788 ft 379 kts 142°
2026-05-08 12:12 38.45329 25.65103 24441 ft 379 kts 142°
2026-05-08 12:12 38.43458 25.67470 24112 ft 378 kts 141°
2026-05-08 12:12 38.41596 25.69825 23771 ft 377 kts 141°
2026-05-08 12:13 38.39757 25.72149 23384 ft 377 kts 141°
2026-05-08 12:13 38.37902 25.74490 23027 ft 375 kts 141°
2026-05-08 12:13 38.36056 25.76827 22684 ft 373 kts 141°
2026-05-08 12:13 38.34221 25.79158 22341 ft 372 kts 141°
2026-05-08 12:14 38.32396 25.81477 22007 ft 370 kts 141°
2026-05-08 12:14 38.30580 25.83783 21673 ft 368 kts 140°
2026-05-08 12:14 38.28771 25.86077 21355 ft 366 kts 140°
2026-05-08 12:14 38.26972 25.88356 21022 ft 364 kts 140°
2026-05-08 12:15 38.25174 25.90625 20697 ft 363 kts 141°
2026-05-08 12:15 38.23325 25.92783 20359 ft 360 kts 144°
2026-05-08 12:15 38.21467 25.94830 20038 ft 358 kts 144°
2026-05-08 12:15 38.19573 25.96887 19709 ft 357 kts 144°
2026-05-08 12:16 38.17690 25.98939 19386 ft 356 kts 144°
2026-05-08 12:16 38.15813 26.00995 19066 ft 356 kts 143°
2026-05-08 12:16 38.13943 26.03051 18719 ft 356 kts 143°
2026-05-08 12:16 38.12076 26.05110 18400 ft 354 kts 143°
2026-05-08 12:17 38.10215 26.07163 17997 ft 354 kts 143°
2026-05-08 12:17 38.08361 26.09207 17665 ft 352 kts 143°
2026-05-08 12:17 38.06535 26.11266 17331 ft 352 kts 139°
2026-05-08 12:17 38.05043 26.13687 17004 ft 355 kts 124°
2026-05-08 12:18 38.03790 26.16369 16699 ft 353 kts 122°
2026-05-08 12:18 38.02566 26.19064 16370 ft 352 kts 122°
2026-05-08 12:18 38.01344 26.21746 16047 ft 350 kts 123°
2026-05-08 12:18 38.00118 26.24408 15717 ft 349 kts 123°
2026-05-08 12:19 37.98887 26.27054 15399 ft 348 kts 123°
2026-05-08 12:19 37.97653 26.29688 15079 ft 346 kts 123°
2026-05-08 12:19 37.96439 26.32272 14760 ft 345 kts 123°
2026-05-08 12:19 37.95210 26.34882 14430 ft 344 kts 124°
2026-05-08 12:20 37.93984 26.37483 14084 ft 344 kts 124°
2026-05-08 12:20 37.92759 26.40078 13607 ft 342 kts 124°
2026-05-08 12:20 37.91551 26.42640 13305 ft 334 kts 124°
2026-05-08 12:20 37.90386 26.45129 13220 ft 324 kts 124°
2026-05-08 12:21 37.89248 26.47561 13001 ft 319 kts 124°
2026-05-08 12:21 37.88119 26.49970 12707 ft 317 kts 124°
2026-05-08 12:21 37.87011 26.52330 12425 ft 315 kts 124°
2026-05-08 12:21 37.85898 26.54699 12156 ft 313 kts 125°
2026-05-08 12:22 37.84728 26.56990 11854 ft 306 kts 136°
2026-05-08 12:22 37.83077 26.58556 11616 ft 292 kts 159°
2026-05-08 12:22 37.81212 26.59467 11359 ft 285 kts 167°
2026-05-08 12:22 37.79320 26.60213 11065 ft 284 kts 168°
2026-05-08 12:23 37.77436 26.60930 10806 ft 281 kts 168°
2026-05-08 12:23 37.75568 26.61644 10538 ft 280 kts 167°
2026-05-08 12:23 37.73740 26.62354 10334 ft 276 kts 167°
2026-05-08 12:23 37.71923 26.63065 10189 ft 271 kts 167°
2026-05-08 12:24 37.70133 26.63771 9956 ft 270 kts 167°
2026-05-08 12:24 37.68343 26.64478 9669 ft 268 kts 167°
2026-05-08 12:24 37.66572 26.65179 9343 ft 265 kts 167°
2026-05-08 12:24 37.64812 26.65876 8909 ft 265 kts 166°
2026-05-08 12:25 37.63072 26.66567 8708 ft 256 kts 166°
2026-05-08 12:25 37.61418 26.67227 8597 ft 244 kts 166°
2026-05-08 12:25 37.59816 26.67862 8335 ft 239 kts 166°
2026-05-08 12:25 37.58269 26.68476 8255 ft 227 kts 166°
2026-05-08 12:26 37.56826 26.69050 8190 ft 213 kts 167°
2026-05-08 12:26 37.55449 26.69597 7961 ft 204 kts 167°
2026-05-08 12:26 37.54108 26.70127 7637 ft 200 kts 166°
2026-05-08 12:26 37.52791 26.70648 7253 ft 198 kts 166°
2026-05-08 12:27 37.51476 26.71168 7056 ft 198 kts 166°
2026-05-08 12:27 37.50188 26.71887 6773 ft 212 kts 142°
2026-05-08 12:27 37.49328 26.73350 6574 ft 207 kts 119°
2026-05-08 12:27 37.48771 26.74996 6320 ft 201 kts 117°
2026-05-08 12:28 37.48183 26.76560 6089 ft 196 kts 120°
2026-05-08 12:28 37.47602 26.78079 5855 ft 194 kts 118°
2026-05-08 12:28 37.47068 26.79634 5623 ft 193 kts 115°
2026-05-08 12:28 37.46589 26.81204 5382 ft 192 kts 112°
2026-05-08 12:29 37.46175 26.82793 5171 ft 191 kts 109°
2026-05-08 12:29 37.45847 26.84400 4952 ft 189 kts 102°
2026-05-08 12:29 37.45861 26.86036 4712 ft 188 kts 79°
2026-05-08 12:29 37.46344 26.87558 4475 ft 187 kts 57°
2026-05-08 12:30 37.47206 26.88753 4252 ft 184 kts 37°
2026-05-08 12:30 37.48335 26.89479 4045 ft 184 kts 18°
2026-05-08 12:30 37.49593 26.89801 3761 ft 192 kts
2026-05-08 12:30 37.50922 26.89881 3479 ft 190 kts
2026-05-08 12:31 37.52226 26.89937 3235 ft 185 kts
2026-05-08 12:31 37.53500 26.89993 2994 ft 181 kts
2026-05-08 12:31 37.54740 26.90045 2794 ft 172 kts
2026-05-08 12:31 37.55913 26.90097 2551 ft 168 kts
2026-05-08 12:32 37.57076 26.90150 2369 ft 163 kts
2026-05-08 12:32 37.58171 26.90201 2470 ft 156 kts
2026-05-08 12:32 37.59256 26.90252 2461 ft 155 kts
2026-05-08 12:32 37.60333 26.90303 2457 ft 155 kts
2026-05-08 12:33 37.61416 26.90331 2286 ft 159 kts 358°
2026-05-08 12:33 37.62491 26.90132 2099 ft 154 kts 343°
2026-05-08 12:33 37.63484 26.89648 1886 ft 152 kts 336°
2026-05-08 12:33 37.64453 26.89110 1692 ft 153 kts 335°
2026-05-08 12:34 37.65416 26.88549 1435 ft 152 kts 334°
2026-05-08 12:34 37.66356 26.87969 1193 ft 151 kts 332°
2026-05-08 12:34 37.67297 26.87383 939 ft 150 kts 341°
2026-05-08 12:34 37.68315 26.87335 719 ft 149 kts 20°
2026-05-08 12:35 37.69026 26.88182 577 ft 144 kts 80°
2026-05-08 12:35 37.69034 26.89437 269 ft 145 kts 95°
2026-05-08 12:35 37.68949 26.90690 30 ft 139 kts 95°
2026-05-08 12:35 37.68892 26.91650 28 ft 82 kts 95°
2026-05-08 12:36 37.68865 26.92097 28 ft 20 kts 93°
2026-05-08 12:36 37.68860 26.92170 28 ft 7 kts 94°
2026-05-08 12:36 37.68856 26.92240 28 ft 10 kts 94°
2026-05-08 12:36 37.68873 26.92331 28 ft 10 kts 125°
2026-05-08 12:37 37.68850 26.92320 28 ft 4 kts 261°
2026-05-08 12:37 37.68852 26.92287 28 ft 4 kts 274°
2026-05-08 12:37 37.68854 26.92255 28 ft 4 kts 275°
2026-05-08 12:37 37.68856 26.92221 28 ft 5 kts 274°
2026-05-08 12:38 37.68861 26.92147 28 ft 12 kts 275°
2026-05-08 12:38 37.68869 26.92010 28 ft 20 kts 274°
2026-05-08 12:38 37.68880 26.91830 28 ft 20 kts 275°
2026-05-08 12:38 37.68905 26.91708 28 ft 11 kts 317°
2026-05-08 12:39 37.68971 26.91666 28 ft 10 kts 321°
2026-05-08 12:39 37.68992 26.91583 28 ft 10 kts 279°
2026-05-08 12:39 37.69005 26.91498 28 ft 10 kts 281°
2026-05-08 12:39 37.68997 26.91414 28 ft 10 kts 261°
2026-05-08 12:40 37.68997 26.91328 28 ft 11 kts 274°
2026-05-08 12:40 37.69008 26.91234 28 ft 8 kts 309°
2026-05-08 12:40 37.69053 26.91230 28 ft 5 kts
2026-05-08 12:40 37.69061 26.91231 28 ft 0 kts